Tracking 20242 objects as of 24-Jan-2020
HD Live streaming from Space Station
objects crossing your sky now

COSMOS 2251 DEB

Track COSMOS 2251 DEB now!
10-day predictions


NORAD ID: 35960
Int'l Code: 1993-036AVA
Perigee: 541.4 km
Apogee: 627.2 km
Inclination: 74.0 °
Period: 96.2 minutes
Semi major axis: 6955 km
RCS: 0.0013 m2 (small)
Launch date: June 16, 1993
Source: Commonwealth of Independent States (former USSR) (CIS)
Launch site: PLESETSK MISSILE AND SPACE COMPLEX (PKMTR)

Note: This is SATELLITE DEBRIS
aabbcc
Your satellite tracking list
Your tracking list is empty




NASA's NSSDC Master Catalog

Two Line Element Set (TLE):
1 35960U 93036AVA 20023.25293520  .00001802  00000-0  15548-3 0  9996
2 35960  74.0103 112.2678 0061731  27.9887 332.4594 14.96680835572729
Source of the keplerian elements: AFSPC